Location: Thompson
(55.7500°N, 97.8670°W)
Time: 22:23:15
(UTC-05:00)

Cosmos 1666 - Visible Passes

Search period start: 17 April 2015 00:00
Search period end: 27 April 2015 00:00
Orbit: 511 x 534 km, 82.5° (Epoch: 17 April)

Date Brightness Start Highest point End Pass type
(mag) Time Alt. Az. Time Alt. Az. Time Alt. Az.
17 Apr 4.9 01:47:17 10° NNE 01:50:18 21° ENE 01:51:44 17° E visible
17 Apr 2.8 03:22:39 10° NNW 03:26:32 55° W 03:26:52 53° WSW visible
18 Apr 5.0 01:34:29 10° NNE 01:37:20 19° ENE 01:38:49 16° E visible
18 Apr 2.7 03:09:43 10° NNW 03:13:39 62° W 03:13:58 59° SW visible
19 Apr 5.1 01:21:41 10° NNE 01:24:21 17° ENE 01:25:55 15° E visible
19 Apr 2.6 02:56:47 10° NNW 03:00:44 69° W 03:01:03 65° SW visible
20 Apr 5.1 01:08:52 10° NNE 01:11:21 16° ENE 01:12:59 13° E visible
20 Apr 2.6 02:43:50 10° NNW 02:47:49 78° WSW 02:48:08 71° SSW visible
20 Apr 5.0 04:21:58 10° WNW 04:23:00 11° W 04:23:16 11° W visible
21 Apr 5.2 00:56:05 10° NNE 00:58:20 15° ENE 01:00:04 12° E visible
21 Apr 2.6 02:30:53 10° NNW 02:34:52 87° W 02:35:13 73° S visible
21 Apr 4.9 04:08:32 10° WNW 04:10:07 12° W 04:10:21 12° W visible
22 Apr 5.3 00:43:19 10° NNE 00:45:18 14° NE 00:47:09 11° E visible
22 Apr 2.6 02:17:55 10° N 02:21:54 84° ENE 02:22:18 71° SSE visible
22 Apr 4.9 03:55:14 10° NW 03:57:13 13° W 03:57:26 13° W visible
23 Apr 5.4 00:30:36 10° NNE 00:32:15 12° NE 00:34:01 10° E visible
23 Apr 2.7 02:04:58 10° N 02:08:56 76° ENE 02:09:23 65° SE visible
23 Apr 4.8 03:42:02 10° NW 03:44:18 15° W 03:44:31 15° W visible
24 Apr 5.4 00:17:56 10° NE 00:19:11 11° NE 00:20:32 10° ENE visible
24 Apr 2.9 01:51:59 10° N 01:55:56 67° ENE 01:56:28 59° ESE visible
24 Apr 4.7 03:28:51 10° NW 03:31:22 16° W 03:31:36 16° W visible
25 Apr 5.5 00:05:31 10° NE 00:06:05 10° NE 00:06:49 10° ENE visible
25 Apr 3.0 01:39:00 10° N 01:42:56 60° ENE 01:43:32 52° ESE visible
25 Apr 4.6 03:15:41 10° NW 03:18:26 18° W 03:18:40 18° W visible
26 Apr 3.2 01:26:01 10° N 01:29:54 53° ENE 01:30:36 46° ESE visible
26 Apr 4.4 03:02:33 10° NW 03:05:28 20° W 03:05:44 19° W visible
